Weather History for KBNL - February, 2013

Change the Weather History Date:

Saturday, February 23, 2013

  Actual Average (KOGB) Record (KOGB)
Temperature  
Mean Temperature 42 °F 51 °F  
Max Temperature 46 °F 63 °F 82 °F (2012)
Min Temperature 39 °F 40 °F 20 °F (1963)
Degree Days  
Heating Degree Days 22 14  
Month to date heating degree days 369  
Since 1 July heating degree days 1866  
Cooling Degree Days 0 0  
Month to date cooling degree days 0  
Year to date cooling degree days 1  
Moisture  
Dew Point 43 °F    
Average Humidity 99    
Maximum Humidity 100    
Minimum Humidity 93    
Precipitation  
Precipitation 0.68 in 0.15 in 1.86 in (1992)
Month to date precipitation 2.83  
Year to date precipitation 6.81  
Sea Level Pressure  
Sea Level Pressure 29.94 in    
Wind  
Wind Speed 3 mph (NNE)    
Max Wind Speed 13 mph    
Max Gust Speed -    
Visibility 4 miles    
Events Fog , Rain    
T = Trace of Precipitation, MM = Missing Value Source: NWS Daily Summary

Daily Weather History Graph

Daily Weather History Graph

Search for Another Location

Airport or City:

Trip Planner

Search our weather history database for the weather conditions in past years. The results will help you decide how hot, cold, wet, or windy it might be!

Date:

Astronomy

Feb. 23, 2013 Rise Set
Actual Time 7:00 AM EST 6:17 PM EST
Civil Twilight 6:35 AM EST 6:42 PM EST
Nautical Twilight 6:06 AM EST 7:11 PM EST
Astronomical Twilight 5:37 AM EST 7:40 PM EST
Moon 4:29 PM EST (2/23) 5:18 AM EST (2/23)
Length of Visible Light 12h 07m
Length of Day
11h 17m
Waxing Gibbous, 95% of the Moon is Illuminated
Feb 23
Waxing Gibbous
Feb 25
Full
Mar 4
Last Quarter
Mar 11
New
Mar 19
First Quarter

Hourly Weather History & Observations

Time (EST) Temp. Windchill Dew Point Humidity Pressure Visibility Wind Dir Wind Speed Gust Speed Precip Events Conditions
12:15 AM 41.0 °F 37.1 °F 41.0 °F 100% 30.09 in 0.5 mi NE 5.8 mph - N/A Fog Fog
12:35 AM 41.0 °F 38.0 °F 41.0 °F 100% 30.08 in 0.8 mi NE 4.6 mph - N/A   Overcast
12:55 AM 41.0 °F - 41.0 °F 100% 30.08 in 0.5 mi Calm Calm - N/A Fog Fog
1:15 AM 41.0 °F - 41.0 °F 100% 30.06 in 0.8 mi Calm Calm - N/A   Light Drizzle
1:35 AM 41.0 °F 38.0 °F 41.0 °F 100% 30.06 in 0.8 mi NNE 4.6 mph - N/A   Overcast
1:55 AM 41.0 °F 36.4 °F 41.0 °F 100% 30.06 in 1.0 mi NNE 6.9 mph - N/A   Light Drizzle
2:15 AM 41.0 °F 35.8 °F 41.0 °F 100% 30.05 in 1.2 mi North 8.1 mph - 0.01 in Rain Rain
2:35 AM 41.0 °F 35.2 °F 41.0 °F 100% 30.02 in 2.5 mi North 9.2 mph - 0.01 in   Light Drizzle
2:55 AM 41.0 °F 36.4 °F 41.0 °F 100% 30.00 in 5.0 mi NE 6.9 mph - 0.01 in   Overcast
3:15 AM 41.0 °F 38.0 °F 41.0 °F 100% 30.00 in 5.0 mi NE 4.6 mph - N/A Rain Light Rain
3:35 AM 41.0 °F 39.0 °F 41.0 °F 100% 29.99 in 5.0 mi East 3.5 mph - 0.01 in Rain Light Rain
3:55 AM 41.0 °F 38.0 °F 41.0 °F 100% 29.97 in 4.0 mi ENE 4.6 mph - 0.05 in Rain Rain
4:15 AM 41.0 °F 38.0 °F 41.0 °F 100% 29.95 in 5.0 mi NE 4.6 mph - 0.03 in Rain Rain
4:35 AM 41.0 °F 39.0 °F 41.0 °F 100% 29.95 in 4.0 mi ENE 3.5 mph - 0.07 in Rain Rain
4:55 AM 41.0 °F - 41.0 °F 100% 29.96 in 5.0 mi Calm Calm - 0.10 in Rain Rain
5:15 AM 41.0 °F - 41.0 °F 100% 29.96 in 6.0 mi Calm Calm - 0.01 in Rain Light Rain
5:35 AM 41.0 °F 39.0 °F 41.0 °F 100% 29.97 in 5.0 mi North 3.5 mph - 0.02 in Rain Rain
5:55 AM 41.0 °F 37.1 °F 39.2 °F 93% 29.95 in 5.0 mi ENE 5.8 mph - 0.03 in Rain Rain
6:15 AM 41.0 °F 37.1 °F 41.0 °F 100% 29.96 in 5.0 mi North 5.8 mph - 0.02 in Rain Heavy Rain
6:35 AM 39.2 °F 33.6 °F 39.2 °F 100% 29.94 in 2.5 mi North 8.1 mph - 0.12 in Rain Heavy Rain
6:55 AM 39.2 °F 33.0 °F 39.2 °F 100% 29.94 in 3.0 mi NNE 9.2 mph - 0.21 in Rain Heavy Rain
7:15 AM 39.2 °F 34.2 °F 39.2 °F 100% 29.96 in 3.0 mi NNE 6.9 mph - 0.05 in Rain Heavy Rain
7:35 AM 39.2 °F 35.0 °F 39.2 °F 100% 29.99 in 3.0 mi NNW 5.8 mph - 0.14 in Rain Heavy Rain
7:55 AM 39.2 °F - 39.2 °F 100% 30.00 in 3.0 mi Calm Calm - 0.23 in Rain Heavy Rain
8:15 AM 39.2 °F - 39.2 °F 100% 30.00 in 3.0 mi Calm Calm - 0.03 in Rain Rain
8:35 AM 41.0 °F - 39.2 °F 93% 29.99 in 9.0 mi Calm Calm - 0.04 in Rain Light Rain
8:55 AM 41.0 °F - 39.2 °F 93% 29.98 in 9.0 mi Calm Calm - 0.04 in   Light Drizzle
9:15 AM 41.0 °F - 39.2 °F 93% 29.96 in 10.0 mi Calm Calm - N/A   Light Drizzle
9:55 AM 42.8 °F - 41.0 °F 93% 29.98 in 10.0 mi Calm Calm - N/A   Overcast
10:15 AM 42.8 °F - 41.0 °F 93% 29.98 in 8.0 mi Calm Calm - N/A   Overcast
10:35 AM 42.8 °F - 41.0 °F 93% 29.95 in 10.0 mi Calm Calm - N/A   Light Drizzle
10:55 AM 42.8 °F - 41.0 °F 93% 29.94 in 7.0 mi Calm Calm - N/A Rain Light Rain
11:15 AM 42.8 °F - 42.8 °F 100% 29.95 in 9.0 mi Calm Calm - N/A   Light Drizzle
11:35 AM 42.8 °F - 42.8 °F 100% 29.96 in 10.0 mi Calm Calm - N/A   Overcast
11:55 AM 44.6 °F - 42.8 °F 93% 29.97 in 10.0 mi Calm Calm - N/A   Overcast
12:15 PM 44.6 °F - 42.8 °F 93% 29.96 in 10.0 mi Calm Calm - N/A   Overcast
12:35 PM 44.6 °F - 42.8 °F 93% 29.95 in 10.0 mi Calm Calm - N/A   Overcast
12:55 PM 44.6 °F - 44.6 °F 100% 29.96 in 9.0 mi Calm Calm - N/A   Overcast
1:15 PM 44.6 °F - 42.8 °F 93% 29.94 in 3.0 mi Calm Calm - N/A   Overcast
1:35 PM 44.6 °F - 44.6 °F 100% 29.92 in 2.0 mi Calm Calm - N/A   Overcast
1:55 PM 44.6 °F - 44.6 °F 100% 29.93 in 1.8 mi Calm Calm - N/A   Overcast
2:15 PM 44.6 °F 41.4 °F 44.6 °F 100% 29.92 in 0.8 mi NW 5.8 mph - N/A   Overcast
2:35 PM 44.6 °F - 44.6 °F 100% 29.91 in 0.5 mi Calm Calm - N/A Fog Fog
2:55 PM 44.6 °F - 44.6 °F 100% 29.90 in 0.5 mi Calm Calm - N/A Fog Fog
3:15 PM 46.4 °F - 44.6 °F 93% 29.90 in 0.2 mi Calm Calm - N/A Fog Fog
3:35 PM 46.4 °F - 44.6 °F 93% 29.89 in 0.2 mi Calm Calm - N/A Fog Fog
3:55 PM 46.4 °F - 46.4 °F 100% 29.89 in 0.5 mi Calm Calm - N/A Fog Fog
4:15 PM 46.4 °F - 46.4 °F 100% 29.89 in 0.5 mi Calm Calm - N/A Fog Fog
4:35 PM 46.4 °F - 46.4 °F 100% 29.90 in 1.0 mi Calm Calm - N/A   Overcast
4:55 PM 46.4 °F - 46.4 °F 100% 29.88 in 0.5 mi Calm Calm - N/A Fog Fog
5:15 PM 46.4 °F - 46.4 °F 100% 29.89 in 0.8 mi Calm Calm - N/A   Overcast
5:35 PM 46.4 °F - 46.4 °F 100% 29.90 in 0.5 mi Calm Calm - N/A Fog Fog
5:55 PM 46.4 °F - 46.4 °F 100% 29.87 in 0.8 mi Calm Calm - N/A   Overcast
6:15 PM 46.4 °F - 46.4 °F 100% 29.88 in 1.2 mi Calm Calm - N/A   Overcast
6:35 PM 46.4 °F - 46.4 °F 100% 29.89 in 1.2 mi Calm Calm - N/A   Overcast
6:55 PM 46.4 °F - 46.4 °F 100% 29.90 in 2.0 mi Calm Calm - N/A   Overcast
7:15 PM 46.4 °F - 46.4 °F 100% 29.91 in 1.0 mi Calm Calm - N/A   Overcast
7:35 PM 46.4 °F - 46.4 °F 100% 29.93 in 1.5 mi Calm Calm - N/A   Overcast
7:55 PM 46.4 °F - 46.4 °F 100% 29.92 in 1.5 mi Calm Calm - N/A   Overcast
8:15 PM 46.4 °F - 46.4 °F 100% 29.91 in 0.8 mi Calm Calm - N/A   Overcast
8:35 PM 46.4 °F - 46.4 °F 100% 29.91 in 0.8 mi Calm Calm - N/A   Overcast
8:55 PM 46.4 °F - 46.4 °F 100% 29.93 in 2.0 mi Calm Calm - N/A   Light Drizzle
9:15 PM 46.4 °F - 46.4 °F 100% 29.95 in 4.0 mi Calm Calm - N/A Rain Light Rain
9:35 PM 46.4 °F 40.7 °F 46.4 °F 100% 29.84 in 2.5 mi ESE 12.7 mph - 0.01 in Rain Light Rain
9:55 PM 46.4 °F 41.9 °F 46.4 °F 100% 29.82 in 9.0 mi East 9.2 mph - 0.01 in   Overcast
10:15 PM 46.4 °F - 46.4 °F 100% 29.87 in 9.0 mi Calm Calm - N/A   Overcast
10:35 PM 46.4 °F - 46.4 °F 100% 29.88 in 9.0 mi Calm Calm - N/A   Overcast
10:55 PM 46.4 °F - 46.4 °F 100% 29.86 in 9.0 mi Calm Calm - N/A   Overcast
11:15 PM 46.4 °F - 46.4 °F 100% 29.86 in 8.0 mi Calm Calm - N/A   Overcast
11:35 PM 46.4 °F - 46.4 °F 100% 29.87 in 7.0 mi Calm Calm - N/A   Overcast
11:55 PM 46.4 °F - 46.4 °F 100% 29.88 in 8.0 mi Calm Calm - N/A   Overcast